Troy, AL

10:53 AM CDT on May 23, 2017 (GMT -0500)
Troy Municipal

Weather History for KTOI - April, 2014

Change the Weather History Date:

Tuesday, April 15, 2014

  Actual Average Record
Temperature  
Mean Temperature 52 °F 63 °F  
Max Temperature 65 °F 76 °F 87 °F (2006)
Min Temperature 38 °F 50 °F 34 °F (2004)
Degree Days  
Heating Degree Days 13 4  
Month to date heating degree days 45 75  
Since 1 July heating degree days 2282 2276  
Cooling Degree Days 0 2  
Month to date cooling degree days 23 21  
Year to date cooling degree days 35 40  
Growing Degree Days 2 (Base 50)    
Moisture  
Dew Point 49 °F    
Average Humidity 71    
Maximum Humidity 93    
Minimum Humidity 48    
Precipitation  
Precipitation 0.28 in 0.14 in 0.28 in (2014)
Month to date precipitation 6.95 2.34  
Year to date precipitation 21.70 17.50  
Snow  
Snow 0.00 in - - ()
Month to date snowfall 0.0  
Since 1 July snowfall 0.3  
Snow Depth 0.00 in    
Sea Level Pressure  
Sea Level Pressure 29.90 in    
Wind  
Wind Speed 11 mph (NW)    
Max Wind Speed 25 mph    
Max Gust Speed 34 mph    
Visibility 8 miles    
Events Rain    
T = Trace of Precipitation, MM = Missing Value Source: NWS Daily Summary

Daily Weather History Graph

Daily Weather History Graph

Search for Another Location

Airport or City:

Trip Planner

Search our weather history database for the weather conditions in past years. The results will help you decide how hot, cold, wet, or windy it might be!

Date:

Astronomy

Apr. 15, 2014 Rise Set
Actual Time 6:15 AM CDT 7:13 PM CDT
Civil Twilight 5:50 AM CDT 7:38 PM CDT
Nautical Twilight 5:20 AM CDT 8:08 PM CDT
Astronomical Twilight 4:50 AM CDT 8:38 PM CDT
Moon 7:51 PM CDT (4/15) 6:23 AM CDT (4/15)
Length of Visible Light 13h 47m
Length of Day
12h 57m
Full, 100% of the Moon is Illuminated
Apr 15
Full
Apr 22
Last Quarter
Apr 29
New
May 6
First Quarter
May 14
Full

Hourly Weather History & Observations

Time (CDT) Temp. Windchill Dew Point Humidity Pressure Visibility Wind Dir Wind Speed Gust Speed Precip Events Conditions
12:53 AM 64.9 °F - 63.0 °F 93% 29.80 in 4.0 mi SSW 3.5 mph - 0.06 in Rain Rain
1:07 AM 64.9 °F - 63.0 °F 93% 29.79 in 5.0 mi ENE 3.5 mph - 0.01 in Rain Light Rain
1:42 AM 64.9 °F - 63.0 °F 93% 29.79 in 2.0 mi NNW 8.1 mph - 0.12 in Rain Heavy Rain
1:49 AM 64.4 °F - 62.6 °F 94% 29.78 in 4.0 mi North 5.8 mph - 0.13 in Rain Rain
1:53 AM 64.9 °F - 63.0 °F 93% 29.78 in 6.0 mi North 3.5 mph - 0.13 in Rain Light Rain
2:07 AM 64.9 °F - 63.0 °F 93% 29.79 in 10.0 mi Calm Calm - 0.00 in Rain Light Rain
2:26 AM 64.9 °F - 63.0 °F 93% 29.78 in 6.0 mi ENE 3.5 mph - 0.03 in Rain Light Rain
2:53 AM 64.0 °F - 62.1 °F 93% 29.74 in 9.0 mi ESE 6.9 mph - 0.05 in Rain Light Rain
3:01 AM 64.0 °F - 62.1 °F 93% 29.73 in 10.0 mi ESE 9.2 mph - 0.00 in Rain Light Rain
3:53 AM 64.0 °F - 62.1 °F 93% 29.74 in 9.0 mi NW 4.6 mph - 0.01 in Rain Light Rain
4:26 AM 64.0 °F - 62.1 °F 93% 29.77 in 6.0 mi SW 3.5 mph - 0.02 in Rain Light Rain
4:49 AM 64.4 °F - 62.6 °F 94% 29.77 in 6.0 mi West 3.5 mph - 0.04 in Rain Light Rain
4:53 AM 64.0 °F - 62.1 °F 93% 29.75 in 7.0 mi West 4.6 mph - 0.05 in Rain Light Rain
5:19 AM 64.0 °F - 62.1 °F 93% 29.76 in 6.0 mi WNW 5.8 mph - 0.03 in Rain Rain
5:46 AM 64.0 °F - 61.0 °F 90% 29.75 in 10.0 mi West 5.8 mph - 0.04 in Rain Light Rain
5:53 AM 63.0 °F - 61.0 °F 93% 29.74 in 10.0 mi WNW 6.9 mph - 0.05 in Rain Light Rain
6:20 AM 55.9 °F - 53.1 °F 90% 29.79 in 10.0 mi WNW 18.4 mph 31.1 mph 0.00 in   Overcast
6:27 AM 55.9 °F - 52.0 °F 87% 29.79 in 10.0 mi WNW 18.4 mph 26.5 mph 0.00 in   Overcast
6:53 AM 54.0 °F - 51.1 °F 90% 29.80 in 5.0 mi WNW 12.7 mph 21.9 mph 0.00 in   Overcast
7:24 AM 51.1 °F - 46.9 °F 86% 29.85 in 10.0 mi NW 21.9 mph 34.5 mph 0.00 in   Overcast
7:33 AM 50.0 °F - 46.0 °F 86% 29.87 in 7.0 mi WNW 17.3 mph 26.5 mph 0.00 in   Overcast
7:53 AM 48.9 °F - 46.0 °F 90% 29.87 in 4.0 mi NW 13.8 mph 26.5 mph 0.00 in Rain Light Rain
8:53 AM 48.9 °F - 45.0 °F 86% 29.90 in 10.0 mi NW 15.0 mph 24.2 mph 0.00 in   Overcast
9:42 AM 48.9 °F - 43.0 °F 80% 29.93 in 10.0 mi NW 16.1 mph - N/A   Overcast
9:53 AM 48.9 °F - 44.1 °F 83% 29.94 in 10.0 mi NW 13.8 mph 24.2 mph N/A   Overcast
10:14 AM 48.0 °F - 43.0 °F 83% 29.96 in 10.0 mi NW 15.0 mph 26.5 mph 0.00 in   Overcast
10:53 AM 48.9 °F - 42.1 °F 77% 29.97 in 10.0 mi NW 21.9 mph 33.4 mph 0.00 in   Overcast
11:08 AM 48.9 °F - 43.0 °F 80% 29.98 in 10.0 mi NW 19.6 mph 28.8 mph N/A   Overcast
11:53 AM 50.0 °F - 41.0 °F 71% 29.98 in 10.0 mi NW 16.1 mph 31.1 mph N/A   Overcast
12:41 PM 48.0 °F - 39.9 °F 74% 30.00 in 10.0 mi NW 18.4 mph 24.2 mph N/A   Overcast
12:53 PM 48.0 °F - 39.9 °F 74% 30.00 in 10.0 mi NW 15.0 mph 26.5 mph N/A   Overcast
1:53 PM 48.0 °F - 39.0 °F 71% 30.01 in 10.0 mi NNW 20.7 mph 28.8 mph N/A   Overcast
2:53 PM 50.0 °F - 37.0 °F 61% 30.02 in 10.0 mi NW 18.4 mph 27.6 mph N/A   Overcast
3:53 PM 54.0 °F - 37.0 °F 53% 30.02 in 10.0 mi NNW 20.7 mph 29.9 mph N/A   Mostly Cloudy
4:53 PM 53.1 °F - 36.0 °F 52% 30.02 in 10.0 mi NNW 24.2 mph 32.2 mph N/A   Clear
5:53 PM 52.0 °F - 32.0 °F 47% 30.04 in 10.0 mi NNW 18.4 mph 25.3 mph N/A   Clear
6:53 PM 50.0 °F - 32.0 °F 50% 30.02 in 10.0 mi North 11.5 mph - N/A   Clear
7:53 PM 46.0 °F - 35.1 °F 66% 30.07 in 10.0 mi Calm Calm - N/A   Clear
8:53 PM 42.1 °F - 37.0 °F 82% 30.12 in 10.0 mi Calm Calm - N/A   Clear
9:53 PM 41.0 °F - 37.0 °F 86% 30.15 in 10.0 mi Calm Calm - N/A   Clear
10:53 PM 41.0 °F 39.0 °F 35.1 °F 79% 30.17 in 10.0 mi NNW 3.5 mph - N/A   Clear
11:53 PM 41.0 °F 36.4 °F 33.1 °F 73% 30.17 in 10.0 mi North 6.9 mph - N/A   Clear